Location: ??
(34.9170°N, 135.5016°E)
Time: 18:50:20
(UTC+00:00)

Cosmos 1833 Rocket - Pass Details

Date: 29 October 2020
Orbit: 832 x 840 km, 71.0° (Epoch: 01 December)

Event Time Altitude Azimuth Distance (km) Brightness Sun altitude
Exits shadow 18:34:35 27° 22° (NNE) 1,577 4.3 -33.8°
Drops below altitude 10° 18:37:00 10° 22° (NNE) 2,460 5.4 -33.3°
Sets 18:39:27 0° 22° (NNE) 3,398 6.2 -32.8°
